Weather observations for the past three days for
Temple, Draughon-Miller Central Texas Regional Airport
Imperial (Metric)
Date Time (cdt) Wind (mph) Vis. (mi.) Weather Sky Cond. Temperature (ºF) Relative Humidity Wind Chill (°F) Heat Index (°F) Pressure Precipitation (in)
Air Dwpt 6 hour altimeter (in) sea level (mb) 1 hr 3 hr 6 hr
Max. Min.
14 05:51 Calm 10.00 A Few Clouds FEW029 73 72 96% 29.99 1014.3
14 04:51 SE 5 10.00 Fair CLR 73.9 71.1 91% 29.96 1013.4
14 03:51 SE 5 10.00 Fair CLR 75 70 84% 75 29.94 1012.9
14 02:51 SE 6 10.00 Fair CLR 75.9 70 82% 77 29.94 1012.8
14 01:51 E 6 10.00 Fair CLR 77 70 79% 79 29.95 1013.1
14 00:51 SE 8 10.00 Fair CLR 78.1 71.1 90 78.1 79% 80 29.96 1013.2
13 23:51 E 6 10.00 Fair CLR 78.1 71.1 79% 80 29.96 1013.2
13 22:51 SE 5 10.00 Fair CLR 79 71.1 77% 82 29.95 1013.1
13 21:51 SE 6 10.00 Fair CLR 81 71.1 72% 85 29.92 1012.1
13 20:51 E 6 10.00 Fair CLR 82 71.1 69% 86 29.91 1011.7
13 19:51 E 7 10.00 Fair CLR 87.1 72 61% 94 29.91 1011.9
13 18:51 E 8 10.00 Fair CLR 91 68 93 87.1 47% 95 29.91 1011.8
13 17:51 E 8 10.00 Fair CLR 91.9 71.1 51% 99 29.92 1011.9
13 16:51 E 7 10.00 A Few Clouds FEW049 90 70 52% 95 29.93 1012.5
13 15:51 S 3 10.00 Fair CLR 91 71.1 52% 98 29.95 1013.0
13 14:51 E 5 10.00 A Few Clouds FEW045 89.1 72 57% 96 29.96 1013.5
13 13:51 S 8 8.00 Mostly Cloudy SCT037 BKN046 91 73.9 57% 101 29.97 1013.9
13 12:51 Vrbl 5 10.00 Mostly Cloudy BKN035 88 73 90 73 61% 96 29.99 1014.5
13 11:51 S 3 10.00 A Few Clouds FEW028 88 73.9 63% 97 30 1014.6
13 10:51 S 9 10.00 Mostly Cloudy BKN022 86 73.9 67% 94 29.99 1014.4
13 09:51 S 7 10.00 A Few Clouds FEW014 84 75.9 77% 93 29.99 1014.5
13 08:51 E 3 9.00 Fair CLR 81 75 82% 87 29.99 1014.5
13 07:51 E 5 10.00 Fair CLR 75.9 73.9 94% 75 29.98 1014.0
13 06:51 E 3 9.00 Fair CLR 73 72 78.1 73 96% 29.96 1013.3
13 05:51 E 5 10.00 Partly Cloudy FEW031 SCT046 73 72 96% 29.95 1013.0
13 04:51 Calm 10.00 Fair CLR 73.9 72 94% 29.94 1012.7
13 03:51 E 3 10.00 Fair CLR 73.9 72 94% 29.93 1012.1
13 02:51 SE 3 10.00 Fair CLR 75.9 73 91% 76 29.92 1012.2
13 01:51 Calm 10.00 Fair CLR 77 73.9 90% 78 29.94 1012.5
13 00:51 Calm 10.00 Overcast OVC049 78.1 73.9 84 77 87% 81 29.95 1013.2
12 23:51 SE 5 10.00 Fair CLR 77 73.9 90% 78 29.96 1013.3
12 22:51 E 5 10.00 Overcast OVC055 79 73.9 85% 83 29.96 1013.2
12 21:51 Calm 10.00 Partly Cloudy SCT048 78.1 73 85% 81 29.94 1012.7
12 20:51 SE 5 10.00 A Few Clouds FEW043 80.1 73 79% 84 29.93 1012.2
12 19:51 SE 8 10.00 Fair CLR 84 72 67% 90 29.92 1011.9
12 18:51 SE 7 10.00 Partly Cloudy FEW033 SCT040 84 72 88 81 67% 90 29.93 1012.2
12 17:51 E 5 10.00 A Few Clouds FEW036 87.1 72 61% 94 29.92 1012.2
12 16:51 E 6 5.00 Partly Cloudy with Haze FEW038 SCT045 86 72 63% 92 29.93 1012.4
12 15:51 NE 6 10.00 Partly Cloudy FEW027 SCT120 84 71.1 65% 89 29.95 1013.2
12 14:51 Calm 10.00 Overcast FEW026 OVC034 82.9 71.1 67% 88 29.97 1013.8
12 13:51 S 5 10.00 Overcast BKN022 OVC032 81 72 74% 85 29.99 1014.4
12 11:51 S 7 10.00 Overcast FEW008 BKN017 OVC023 77 73.9 90% 78 30.02 1015.6
12 10:51 SE 6 10.00 Overcast SCT070 OVC090 75 73.9 96% 73 30.01 1015.4
12 09:51 SE 7 10.00 Light Rain BKN004 OVC013 73 73 100% 30.01 1015.4 0.07 0.46
12 08:51 E 7 2.00 Rain Fog/Mist FEW004 BKN024 OVC029 73 73 100% 30.01 1015.3 0.35
12 07:51 NE 3 3.00 Rain Fog/Mist FEW006 BKN022 OVC060 73 72 96% 29.99 1014.6 0.04
12 06:51 NE 8 8.00 Light Rain FEW011 BKN021 72 72 73 71.1 100% 29.96 1013.6 0.16 0.16
12 05:51 N 6 10.00 Overcast OVC015 73 72 96% 29.95 1013.2
12 04:51 N 7 10.00 Overcast FEW015 OVC026 72 72 100% 29.94 1012.8
12 03:51 N 5 8.00 Mostly Cloudy BKN045 BKN100 BKN120 72 71.1 97% 29.95 1013.1
12 02:51 N 5 8.00 Mostly Cloudy BKN047 BKN120 71.1 71.1 100% 29.94 1013.1
12 01:51 Calm 10.00 Partly Cloudy SCT110 72 71.1 97% 29.94 1012.7
12 00:51 NE 3 10.00 Mostly Cloudy BKN100 BKN120 72 71.1 80.1 71.1 97% 29.95 1013.0
11 23:51 NE 5 10.00 Mostly Cloudy BKN095 71.1 70 96% 29.95 1013.0
11 22:51 E 3 10.00 Fair CLR 72 71.1 97% 29.94 1012.8
11 21:51 NE 3 10.00 Fair CLR 73 71.1 94% 29.92 1012.0
11 20:51 NE 5 10.00 Fair CLR 73.9 71.1 91% 29.9 1011.6
11 19:51 NE 10 10.00 Fair CLR 78.1 71.1 79% 80 29.89 1011.2
11 18:51 NE 8 10.00 Fair CLR 79 72 88 71.1 79% 82 29.88 1010.7 0.04
11 17:51 NE 9 10.00 Mostly Cloudy BKN095 79 72 79% 82 29.88 1010.8
11 16:51 NE 6 10.00 Fair CLR 78.1 72 82% 80 29.89 1011.2
11 15:51 N 6 10.00 Mostly Cloudy FEW031 SCT055 BKN075 73.9 72 94% 29.91 1011.9 0.01 0.04
11 14:51 N 10 G 25 10.00 Thunderstorm Light Rain FEW017 BKN043 OVC050 72 70 94% 29.95 1013.2 0.03
11 13:51 Calm 10.00 Mostly Cloudy BKN038 87.1 72 61% 94 29.92 1011.9
11 12:51 E 5 10.00 Mostly Cloudy BKN034 87.1 73 88 71.1 63% 95 29.92 1012.1
11 11:51 Vrbl 5 10.00 Mostly Cloudy BKN028 BKN032 87.1 73 63% 95 29.94 1012.8
11 10:51 Vrbl 3 10.00 Partly Cloudy SCT018 82.9 73.9 74% 89 29.94 1012.5
11 09:51 Vrbl 3 9.00 Partly Cloudy SCT008 79 73.9 85% 83 29.94 1012.7
11 08:51 E 7 5.00 Fog/Mist OVC006 75.9 73.9 94% 75 29.92 1012.2
11 07:51 NE 6 7.00 Mostly Cloudy BKN006 73.9 73 97% 29.92 1012.0
11 06:51 NE 5 6.00 Fog/Mist CLR 71.1 71.1 73 70 100% 29.91 1011.7
Date Time (cdt) Wind (mph) Vis. (mi.) Weather Sky Cond. Air Dwpt Max. Min. Relative Humidity Wind Chill (°F) Heat Index (°F) altimeter (in) sea level (mb) 1 hr 3 hr 6 hr
6 hour
Temperature (ºF) Pressure Precipitation (in)